Temperature
16 17 18 18 18 18 17 16 15 16 16 16 16 17 17 17 17 17 17 16 16 16 16 16 16 15 15 15 15 14 14 14 14 14 14 14 14 14 14 13 13 13 13 13
17 17 17 17 18 18 18 17 16 16 16 16 17 17 17 17 17 16 16 16 16 16 16 16 15 15 15 15 14 14 14 14 14 14 14 13 13 13 13 13 13 13 13 13
15 16 17 16 17 17 17 17 17 16 16 16 16 16 17 17 17 16 16 16 16 16 15 15 15 15 15 14 14 14 14 14 13 13 13 13 13 13 13 13 13 12 12 12
14 16 16 16 17 17 17 17 17 17 16 16 16 17 17 17 17 16 16 16 15 15 15 15 15 14 14 14 14 13 13 13 13 13 13 12 12 13 13 13 12 12 12 12
13 14 14 16 17 17 17 16 16 16 16 16 16 16 16 16 16 16 16 15 15 15 15 14 14 14 14 14 13 13 13 13 13 12 12 12 12 12 12 12 12 12 12 12
12 14 14 15 17 18 16 15 16 16 15 16 15 13 14 16 16 16 15 15 15 14 14 14 14 13 13 13 13 13 13 12 12 12 12 12 12 11 11 11 11 11 11 11
12 13 13 15 16 17 15 15 16 16 16 16 15 15 15 15 15 15 15 14 14 14 14 13 13 13 13 13 12 12 12 12 12 12 11 11 11 11 11 11 11 11 11 11
11 12 13 15 15 15 14 16 16 16 16 16 15 15 15 15 14 14 14 14 13 13 13 13 12 12 12 12 12 11 11 11 11 11 11 11 11 10 10 10 10 10 10 10
12 13 14 15 15 16 16 16 16 16 16 16 15 14 14 14 14 13 13 13 13 12 12 12 12 12 12 11 11 11 11 11 11 10 10 10 10 10 10 10 10 10 9 9
11 12 13 15 15 15 15 15 15 15 15 15 14 14 14 13 13 13 13 12 12 12 11 11 11 11 11 11 10 10 10 10 10 10 10 10 10 9 9 9 9 9 9 9
11 12 13 14 14 15 15 15 15 14 14 14 14 13 13 13 13 12 12 12 11 11 11 11 10 10 10 10 10 10 10 10 9 9 9 9 9 9 9 9 9 8 8 8
11 13 12 13 14 14 14 14 14 14 14 14 13 13 13 12 12 12 11 11 11 10 10 10 10 10 9 9 9 9 9 9 9 9 9 8 8 8 8 8 8 8 8 8
14 14 14 14 14 14 13 13 13 13 13 13 13 12 12 12 11 11 11 10 10 10 9 9 9 9 9 9 9 9 9 8 8 8 8 8 8 8 8 8 8 8 7 7
13 13 13 13 13 13 13 13 13 12 12 12 12 12 11 11 11 10 10 10 9 9 9 9 8 8 8 8 8 8 8 8 7 7 7 7 7 7 7 7 7 7 7 7
13 13 13 13 12 12 12 12 12 12 11 11 11 11 11 10 10 10 9 9 9 8 8 8 8 8 8 8 7 7 7 7 7 7 7 7 6 6 6 6 6 6 6 6
12 12 12 12 12 12 12 11 11 11 11 10 10 10 10 10 9 9 9 9 8 8 7 7 7 7 7 7 7 7 7 6 6 6 6 6 6 6 6 6 6 5 5 5
11 11 11 11 11 11 11 11 11 10 10 10 10 9 9 9 9 8 8 8 8 7 7 7 7 6 6 6 6 6 6 6 6 6 5 5 5 5 5 5 5 5 5 5
12 11 11 11 11 11 10 10 10 10 10 9 9 9 9 8 8 8 8 7 7 7 6 6 6 6 6 6 6 6 5 5 5 5 5 5 5 4 4 4 4 4 4 4
11 11 11 10 10 10 10 10 9 9 9 9 9 8 8 8 8 7 7 7 6 6 6 6 5 5 5 5 5 5 5 5 4 4 4 4 4 4 4 4 4 3 3 3
10 10 10 10 10 10 9 9 9 9 8 8 8 8 8 7 7 7 6 6 6 5 5 5 5 5 5 5 5 4 4 4 4 4 3 3 3 3 3 3 3 3 3 3
10 9 9 9 9 9 9 9 8 8 8 8 8 7 7 7 6 6 6 6 5 5 5 5 4 4 4 4 4 4 4 4 3 3 3 3 3 2 2 2 2 2 2 2
9 9 9 8 8 8 8 8 8 8 7 7 7 7 6 6 6 6 5 5 5 4 4 4 4 4 4 4 3 3 3 3 3 3 2 2 2 2 2 2 2 2 2 2
8 8 8 8 8 8 7 7 7 7 7 7 6 6 6 6 5 5 5 5 4 4 4 4 3 3 3 3 3 3 2 2 2 2 2 2 2 1 1 1 1 1 1 1
8 8 8 7 7 7 7 7 6 6 6 6 6 5 5 5 5 5 4 4 4 4 4 3 3 3 3 2 2 2 2 2 2 2 1 1 1 1 1 1 1 0 0 0
7 7 7 7 7 6 6 6 6 6 5 5 5 5 5 4 4 4 4 3 3 3 3 3 2 2 2 2 2 2 2 1 1 1 1 1 1 1 0 0 0 0 -0 -0
7 6 6 6 6 6 6 5 5 5 5 5 4 4 4 4 4 3 3 3 3 2 2 2 2 2 1 1 1 1 1 1 1 0 0 0 0 0 -0 -0 -0 -0 -0 -1
6 6 6 5 5 5 5 5 5 4 4 4 4 4 3 3 3 3 2 2 2 2 1 1 1 1 1 1 0 0 0 0 0 0 -0 -0 -0 -0 -1 -1 -1 -1 -1 -1
Wind_Speed
6 6 4 5 6 5 6 7 8 8 8 9 9 8 7 6 5 4 4 5 5 5 4 2 2 2 3 2 2 2 2 2 2 2 2 2 2 2 2 3 3 3 2 2
3 4 3 5 7 7 7 6 7 6 7 7 5 3 4 5 6 5 5 5 5 5 4 4 4 3 3 3 3 2 2 2 2 0 1 1 2 2 2 2 2 2 3 3
4 5 4 5 7 7 6 5 7 8 8 3 1 4 6 6 6 6 5 4 5 5 5 5 5 4 4 4 2 2 2 2 1 1 1 1 1 1 1 2 2 2 2 3
2 2 5 7 4 4 4 3 4 4 4 5 6 4 3 4 6 5 4 3 3 3 3 3 3 3 2 2 2 2 2 1 1 1 1 0 0 0 1 1 1 2 2 3
3 3 6 6 4 2 2 3 3 2 2 2 2 3 2 1 2 4 3 3 3 3 3 2 2 3 2 1 2 2 1 2 2 2 2 1 1 1 1 1 1 2 2 2
4 3 6 7 5 2 3 3 4 2 3 3 4 2 4 3 1 2 1 1 1 1 1 1 1 2 3 2 2 2 2 2 2 2 2 3 3 2 1 1 1 2 2 2
5 5 7 7 5 1 3 6 3 2 4 4 4 6 5 2 1 2 2 1 2 2 1 1 1 2 2 2 2 3 2 1 1 1 2 3 2 1 1 1 0 1 1 2
5 4 7 4 1 3 6 3 2 2 3 3 3 3 3 3 2 2 2 2 2 2 0 0 1 2 1 2 2 1 1 1 1 1 1 0 1 1 1 0 1 1 2 2
6 6 4 1 3 3 3 3 3 3 3 3 3 3 3 3 3 2 2 2 1 2 1 1 1 1 1 2 2 1 1 1 1 1 1 1 1 1 1 1 2 2 2 2
2 4 3 2 2 2 1 2 2 3 3 3 3 3 3 3 3 2 2 1 1 2 1 1 2 1 1 2 1 1 1 2 2 1 1 1 1 1 1 2 2 2 2 3
2 4 3 3 3 3 2 0 1 1 1 3 4 3 3 3 3 2 2 1 1 2 1 1 1 1 2 1 0 0 1 1 1 1 1 1 1 2 2 3 4 4 4 3
6 6 4 5 4 2 1 1 2 2 0 1 3 3 3 3 2 2 2 1 1 1 0 1 1 1 2 1 0 1 0 1 1 1 1 1 1 2 3 4 5 5 5 4
6 5 5 5 3 2 2 1 1 2 2 1 1 3 3 2 2 2 2 2 1 1 1 0 1 2 2 1 0 1 0 1 1 1 2 2 2 2 3 4 4 4 5 5
4 3 3 3 3 2 2 1 1 1 1 1 2 2 3 2 2 2 1 1 1 0 0 0 1 1 2 1 1 0 0 1 1 2 2 2 3 3 3 3 4 4 4 5
4 4 4 3 2 1 1 2 2 1 1 0 2 3 3 3 2 2 1 1 1 1 0 0 1 2 2 1 0 0 1 1 1 1 2 2 2 3 3 3 3 3 3 4
4 2 3 2 2 2 2 2 3 2 2 2 1 2 2 2 2 1 1 2 1 1 1 1 1 3 2 1 0 1 1 2 2 1 2 2 2 2 2 3 3 3 3 4
4 4 3 3 3 3 3 3 4 4 3 3 3 2 2 2 1 1 1 1 2 2 1 1 3 3 2 1 1 1 1 2 2 2 2 2 2 2 3 3 3 4 4 4
6 6 6 5 5 4 3 3 3 3 3 3 3 2 2 2 2 2 1 0 1 1 1 2 2 2 2 2 1 1 1 1 1 2 2 2 2 2 2 2 3 4 4 4
3 3 3 4 4 4 4 4 4 3 3 3 3 3 2 2 2 2 1 1 0 2 3 3 2 2 2 3 2 1 1 1 1 2 2 3 3 2 2 2 3 3 4 4
1 1 1 2 2 3 3 3 3 2 3 3 3 2 1 1 2 2 2 1 2 3 3 2 2 2 2 3 2 1 2 2 2 2 2 2 2 3 3 3 3 3 3 4
1 1 1 1 1 2 2 3 3 3 3 3 3 3 3 2 2 2 2 2 3 3 2 2 2 2 2 2 2 1 1 2 2 2 2 2 3 3 3 3 3 4 4 4
1 1 1 1 1 1 1 2 3 3 2 2 2 2 2 1 1 1 2 3 3 2 1 1 2 3 3 2 1 1 1 2 2 2 2 2 2 3 3 4 4 4 4 4
2 2 2 2 2 2 1 1 2 3 3 2 2 2 2 2 2 1 2 2 2 2 1 1 3 3 3 2 1 1 2 2 2 2 2 2 3 3 3 4 4 4 4 4
2 2 3 2 2 2 1 1 1 1 2 2 1 2 2 1 1 1 1 2 2 2 1 2 2 2 2 1 1 1 2 2 2 2 2 2 2 3 3 3 3 4 4 5
2 2 2 3 3 2 2 1 1 0 1 0 0 1 1 1 1 1 1 1 2 2 1 2 3 3 2 1 1 2 2 2 2 2 2 2 2 3 3 3 3 4 4 4
2 2 2 3 3 2 2 2 1 1 1 0 1 1 1 0 1 1 0 0 1 2 2 1 2 2 1 1 2 2 2 3 3 2 2 2 3 3 3 3 4 4 4 4
1 1 1 1 1 1 1 2 2 2 2 2 1 1 0 0 0 0 0 0 0 1 1 1 1 1 1 2 2 2 2 2 3 3 3 2 3 3 3 4 4 4 4 4
Wind_Direction
232 242 240 246 250 229 200 197 204 231 229 236 225 214 210 199 190 188 194 194 192 195 198 197 214 222 206 200 196 178 157 176 213 237 237 205 200 201 195 196 202 204 203 211
290 278 277 268 258 243 234 217 216 228 248 247 233 192 195 192 184 190 204 208 203 200 199 201 208 219 219 213 202 177 182 216 231 229 286 224 221 208 191 192 193 189 200 208
267 296 338 276 248 232 230 220 199 219 236 238 192 197 205 199 190 196 202 205 206 210 213 211 211 207 208 214 202 178 195 212 213 182 220 228 232 224 215 208 190 197 209 213
221 351 248 248 259 218 206 245 222 210 220 201 202 208 210 181 178 190 193 199 212 220 225 224 212 201 198 192 185 190 200 212 213 186 206 260 103 244 242 209 203 212 223 218
153 224 271 283 280 221 182 275 285 215 205 180 130 65 0 282 179 191 194 199 205 207 207 210 207 190 159 156 170 173 201 217 213 197 192 197 213 239 242 222 232 225 218 210
154 194 239 249 267 257 112 259 279 179 164 171 118 126 253 265 206 172 150 161 171 169 154 168 213 167 151 173 178 207 219 222 206 192 194 209 219 221 234 220 243 247 241 227
187 218 255 259 284 58 174 239 254 187 171 160 177 205 220 217 176 157 134 129 127 119 130 197 210 146 154 175 220 230 218 209 186 192 210 212 217 218 239 239 282 290 287 281
169 202 251 283 89 181 219 233 238 205 186 176 187 186 176 164 160 137 118 104 113 115 92 283 109 121 152 231 246 214 176 169 203 232 230 218 178 233 250 237 236 257 265 285
190 212 247 270 196 225 196 205 227 205 199 163 152 167 171 175 179 165 146 135 126 122 97 351 348 106 188 266 261 200 168 200 231 257 254 232 201 228 264 250 241 249 249 262
226 269 273 299 316 308 227 208 213 186 175 157 167 177 175 175 184 178 166 155 130 109 101 330 321 335 286 285 277 195 193 223 232 239 277 295 271 236 246 258 256 257 260 264
263 273 306 310 291 273 282 330 77 69 154 166 161 171 176 173 185 191 179 159 129 132 158 270 326 334 324 323 12 165 218 230 251 248 242 264 274 265 254 253 247 243 243 240
234 236 214 250 264 254 216 238 189 145 89 149 160 172 164 166 172 164 153 124 105 92 98 286 326 331 324 320 126 143 219 269 252 253 257 251 258 300 288 269 283 272 266 261
228 236 221 238 246 232 198 207 191 167 171 182 165 158 152 154 159 142 131 122 141 171 210 245 5 345 332 333 65 115 200 263 264 262 258 255 251 255 289 309 310 293 281 278
233 218 240 237 232 231 191 178 137 115 123 141 147 134 129 125 127 128 152 190 176 143 141 112 36 333 323 339 48 32 306 285 282 265 262 253 248 249 253 268 291 297 292 283
251 218 217 224 211 198 170 137 126 138 140 90 130 136 136 137 152 174 183 146 93 59 356 12 11 318 316 333 17 269 271 274 272 278 275 264 259 257 255 257 265 280 296 302
249 232 200 190 199 200 162 150 163 191 181 164 156 160 162 155 158 169 171 149 142 204 255 277 291 294 301 324 327 277 260 276 291 288 288 288 282 275 269 264 265 271 278 287
216 224 213 214 215 213 201 194 189 191 182 176 181 168 146 130 121 141 228 211 176 188 211 247 275 291 303 309 279 253 267 283 303 314 297 286 285 278 273 272 273 275 277 281
210 214 207 199 202 210 218 207 193 184 190 197 172 142 143 159 188 222 237 197 98 18 299 276 279 299 305 302 292 252 247 261 271 281 291 294 299 289 282 283 286 288 295 301
205 203 207 206 200 192 199 203 198 195 195 177 161 169 182 193 203 206 164 114 139 294 296 300 325 323 294 288 300 261 247 261 284 291 284 295 300 296 295 293 293 294 296 300
194 190 202 210 196 184 192 196 186 177 182 170 159 157 166 206 204 181 166 197 234 247 265 284 301 299 291 285 301 272 251 244 252 272 279 278 284 290 290 288 288 292 299 299
224 210 192 187 190 179 177 171 164 173 179 167 166 185 201 216 211 184 179 253 274 267 260 293 298 288 287 300 303 291 277 273 271 275 282 283 285 291 295 297 298 296 296 299
225 194 195 182 161 193 211 181 165 165 171 175 174 172 167 200 232 240 238 236 253 272 272 274 278 298 322 336 318 288 276 277 278 279 282 281 283 293 301 302 301 301 301 298
213 201 196 191 187 189 178 165 165 164 172 181 182 181 189 209 207 205 271 276 249 284 298 257 285 309 339 357 323 291 282 286 285 282 283 287 291 295 300 302 303 302 301 300
210 202 196 180 142 130 160 231 208 181 183 188 201 195 176 163 307 285 255 280 305 334 335 297 312 329 1 13 336 323 310 303 299 297 296 301 304 305 304 303 304 304 303 303
203 192 169 150 159 189 204 207 170 146 140 168 268 248 199 175 200 251 262 272 312 7 3 338 348 0 19 345 331 325 316 307 307 308 304 310 311 311 309 307 308 311 312 312
209 203 199 195 195 197 191 178 185 206 187 201 292 290 298 314 152 170 191 235 350 0 355 322 322 341 343 324 323 321 315 314 315 313 301 300 306 311 314 316 315 314 311 308
225 195 186 200 217 188 181 183 193 207 199 189 220 271 269 131 98 92 89 311 307 318 313 314 323 329 329 327 323 316 309 309 312 310 306 307 309 308 309 308 307 306 306 305
Height
1528 1525 1524 1524 1523 1522 1526 1530 1536 1531 1527 1520 1517 1516 1516 1517 1518 1518 1518 1518 1518 1519 1519 1520 1520 1520 1520 1519 1519 1519 1519 1518 1518 1518 1518 1518 1518 1519 1519 1519 1520 1520 1520 1520
1527 1522 1522 1523 1520 1519 1519 1520 1523 1522 1521 1513 1512 1513 1514 1514 1515 1515 1516 1516 1516 1517 1517 1517 1518 1518 1517 1517 1517 1517 1516 1516 1515 1515 1515 1515 1516 1516 1516 1516 1517 1517 1517 1517
1535 1526 1524 1528 1517 1515 1515 1513 1515 1519 1515 1510 1511 1511 1511 1511 1512 1513 1513 1514 1514 1514 1514 1514 1515 1515 1515 1515 1514 1514 1513 1513 1513 1512 1513 1512 1513 1513 1513 1513 1513 1514 1514 1514
1535 1531 1535 1522 1509 1509 1510 1510 1509 1508 1508 1507 1507 1508 1509 1509 1510 1510 1511 1512 1512 1512 1512 1512 1512 1512 1512 1512 1511 1511 1511 1510 1510 1510 1509 1509 1510 1510 1510 1510 1510 1510 1511 1511
1537 1537 1530 1517 1508 1507 1510 1511 1507 1506 1506 1506 1507 1508 1509 1509 1509 1509 1509 1510 1510 1510 1509 1509 1509 1509 1509 1508 1508 1508 1508 1507 1507 1507 1507 1507 1507 1507 1506 1507 1507 1507 1507 1507
1535 1535 1534 1517 1506 1504 1508 1513 1506 1504 1505 1505 1506 1511 1510 1507 1507 1507 1507 1507 1507 1507 1506 1506 1506 1505 1505 1505 1505 1504 1504 1505 1504 1504 1504 1504 1504 1504 1504 1503 1503 1504 1504 1504
1532 1533 1524 1509 1504 1504 1517 1513 1504 1503 1503 1503 1503 1505 1505 1505 1505 1505 1505 1505 1504 1504 1503 1503 1503 1503 1502 1502 1502 1502 1502 1502 1501 1501 1501 1501 1501 1501 1500 1500 1500 1500 1500 1501
1530 1531 1525 1505 1504 1508 1507 1502 1502 1501 1501 1501 1501 1501 1502 1502 1502 1502 1502 1502 1502 1501 1501 1500 1500 1500 1499 1499 1499 1499 1499 1498 1498 1498 1498 1498 1497 1497 1497 1497 1497 1497 1497 1496
1518 1517 1507 1503 1503 1503 1502 1501 1500 1500 1500 1500 1499 1499 1500 1500 1500 1500 1500 1499 1499 1499 1498 1498 1498 1497 1496 1496 1496 1496 1495 1495 1495 1495 1494 1494 1494 1494 1493 1493 1493 1493 1492 1491
1511 1507 1504 1503 1502 1501 1501 1499 1498 1498 1498 1498 1497 1497 1497 1497 1497 1497 1497 1497 1497 1496 1496 1496 1495 1494 1494 1493 1493 1492 1492 1492 1492 1491 1491 1490 1490 1490 1489 1489 1488 1488 1487 1487
1509 1505 1503 1502 1501 1501 1500 1498 1497 1497 1497 1496 1496 1496 1495 1495 1495 1495 1495 1495 1495 1494 1494 1493 1493 1492 1491 1491 1490 1489 1489 1488 1488 1488 1487 1487 1486 1486 1485 1485 1485 1484 1483 1483
1506 1502 1502 1501 1500 1499 1498 1497 1496 1496 1495 1495 1494 1494 1493 1493 1493 1493 1493 1492 1492 1492 1492 1491 1490 1489 1489 1488 1487 1486 1485 1485 1484 1484 1483 1483 1482 1482 1481 1481 1480 1480 1480 1479
1499 1498 1498 1498 1497 1496 1496 1495 1494 1494 1493 1493 1492 1492 1491 1491 1491 1491 1491 1490 1490 1489 1489 1488 1487 1487 1486 1485 1484 1483 1482 1481 1481 1480 1480 1479 1478 1477 1476 1476 1476 1475 1475 1474
1496 1496 1495 1495 1494 1494 1493 1493 1492 1492 1491 1490 1490 1489 1489 1489 1489 1488 1488 1488 1488 1487 1486 1486 1485 1484 1483 1482 1481 1480 1479 1478 1478 1477 1476 1475 1474 1473 1472 1471 1470 1469 1469 1469
1493 1493 1492 1491 1491 1491 1490 1490 1489 1489 1489 1488 1488 1487 1487 1487 1487 1487 1487 1486 1486 1485 1484 1483 1482 1481 1480 1479 1478 1477 1476 1475 1474 1473 1472 1471 1470 1469 1468 1467 1466 1465 1464 1464
1489 1489 1488 1488 1488 1487 1487 1486 1486 1486 1486 1485 1485 1485 1485 1485 1485 1484 1484 1484 1483 1482 1481 1480 1479 1478 1477 1476 1475 1474 1473 1472 1471 1470 1468 1468 1467 1466 1464 1463 1462 1461 1460 1459
1485 1485 1485 1484 1484 1484 1483 1483 1483 1483 1483 1483 1483 1482 1482 1482 1482 1482 1482 1481 1480 1479 1478 1477 1476 1475 1474 1473 1472 1471 1470 1469 1468 1467 1465 1464 1463 1461 1460 1459 1457 1456 1455 1455
1481 1481 1481 1481 1481 1481 1480 1480 1480 1480 1480 1480 1480 1480 1480 1479 1479 1479 1479 1478 1477 1476 1475 1474 1473 1472 1471 1470 1469 1468 1467 1466 1465 1463 1462 1461 1459 1458 1456 1455 1453 1452 1451 1450
1477 1478 1478 1478 1478 1478 1477 1477 1477 1477 1478 1477 1477 1477 1477 1477 1476 1476 1476 1475 1474 1472 1472 1471 1470 1469 1468 1467 1466 1465 1463 1462 1461 1460 1458 1457 1456 1454 1453 1451 1450 1448 1447 1445
1475 1475 1475 1475 1475 1475 1474 1474 1474 1474 1474 1474 1474 1474 1474 1474 1474 1473 1472 1471 1471 1470 1469 1468 1466 1465 1464 1463 1462 1461 1460 1458 1457 1456 1455 1453 1452 1450 1449 1447 1446 1444 1442 1441
1472 1472 1472 1472 1472 1472 1472 1471 1471 1471 1471 1471 1471 1471 1471 1471 1470 1470 1469 1468 1467 1466 1465 1464 1463 1462 1460 1459 1458 1457 1456 1455 1453 1452 1451 1450 1448 1447 1445 1444 1442 1440 1438 1436
1470 1470 1470 1470 1469 1469 1469 1469 1469 1469 1469 1469 1469 1469 1468 1468 1467 1467 1466 1465 1464 1462 1461 1460 1459 1458 1457 1455 1454 1453 1452 1451 1450 1448 1447 1446 1444 1443 1441 1439 1438 1436 1434 1432
1467 1468 1467 1467 1467 1467 1467 1467 1467 1467 1466 1466 1466 1466 1465 1465 1464 1463 1462 1462 1460 1459 1457 1456 1455 1454 1453 1451 1450 1449 1448 1447 1446 1444 1443 1442 1440 1439 1437 1435 1433 1432 1429 1427
1465 1465 1465 1465 1465 1464 1464 1464 1464 1464 1464 1464 1464 1463 1462 1462 1461 1460 1459 1458 1457 1455 1454 1453 1452 1451 1449 1448 1447 1445 1444 1443 1442 1440 1439 1438 1436 1435 1433 1431 1429 1427 1425 1422
1462 1462 1462 1462 1462 1461 1462 1461 1461 1461 1461 1461 1461 1460 1460 1459 1458 1457 1456 1455 1454 1452 1451 1450 1449 1447 1446 1444 1443 1442 1441 1439 1438 1437 1436 1434 1432 1431 1429 1427 1425 1423 1420 1418
1459 1459 1459 1459 1459 1459 1459 1459 1459 1458 1458 1458 1458 1457 1457 1456 1455 1454 1453 1452 1451 1450 1448 1447 1446 1444 1442 1441 1440 1438 1437 1436 1435 1433 1432 1430 1429 1427 1425 1423 1421 1418 1416 1413
1457 1456 1456 1456 1456 1456 1456 1456 1456 1455 1455 1455 1455 1454 1454 1453 1452 1451 1450 1449 1448 1447 1445 1444 1443 1441 1440 1438 1437 1435 1434 1432 1431 1430 1428 1427 1425 1423 1421 1419 1417 1415 1412 1409